User: anonymous   Login
Location: Mauna Kea VIS
(19.7591°N, 155.4561°W)
Time: 18:50:47
(UTC-10:00)
Language:

Cosmos 1624 Rocket - Orbit

View from above orbital plane
View from above orbital plane
View from above satellite
View from above satellite

Ground track
Ground track

The orbit data is extracted from the following two-line orbital elements,

1 15483U 85006B   17204.47295524 +.00000012 +00000-0 +12991-4 0  9991
2 15483 074.0466 288.6684 0019905 261.7158 186.8068 14.36184430701487
Epoch (UTC): 23 July 2017 11:21:03
Eccentricity: 0.0019905
inclination: 74.0466°
perigee height: 757 km
apogee height: 785 km
right ascension of ascending node: 288.6684°
argument of perigee: 261.7158°
revolutions per day: 14.36184430
mean anomaly at epoch: 186.8068°
orbit number at epoch: 70148

The dashed part of the orbit path shows where the satellite is in the earth's shadow,  

DLR